| time (UTC) | temp C | wind direction | speed KPH | gust KPH | rain 1hr cm | rain 24hr cm | rain mn cm | humidity % | barometer mb |
| 20260906010015 | 12 | 215 | 20.9 | 88.5 | 12.50 | 2.21 | 0.00 | 74 | 1005.1 |
| 20260906005615 | 12 | 227 | 19.3 | 88.5 | 12.50 | 2.21 | 0.00 | 74 | 1005.0 |
| 20260906005215 | 12 | 249 | 40.2 | 88.5 | 12.50 | 2.24 | 0.00 | 74 | 1005.0 |
| 20260906004815 | 12 | 237 | 32.2 | 88.5 | 12.50 | 2.21 | 0.00 | 74 | 1005.0 |
| 20260906004415 | 12 | 237 | 43.5 | 88.5 | 12.50 | 2.24 | 0.00 | 74 | 1005.0 |
| 20260906004015 | 12 | 218 | 35.4 | 88.5 | 12.50 | 2.24 | 0.00 | 74 | 1005.0 |
| 20260906003615 | 12 | 272 | 27.4 | 88.5 | 12.50 | 2.24 | 0.00 | 73 | 1005.0 |
| 20260906003215 | 12 | 228 | 24.1 | 88.5 | 12.50 | 2.24 | 0.00 | 73 | 1005.0 |
| 20260906002815 | 12 | 222 | 25.7 | 88.5 | 12.50 | 2.26 | 0.00 | 73 | 1005.0 |
| 20260906002415 | 12 | 230 | 24.1 | 88.5 | 12.50 | 2.26 | 0.00 | 73 | 1005.0 |
| 20260906002015 | 12 | 225 | 27.4 | 88.5 | 12.50 | 2.26 | 0.00 | 73 | 1005.0 |
| 20260906001615 | 12 | 228 | 30.6 | 88.5 | 12.50 | 2.26 | 0.00 | 73 | 1004.9 |
| 20260906001215 | 12 | 220 | 20.9 | 88.5 | 12.50 | 2.24 | 0.00 | 72 | 1004.9 |
| 20260906000815 | 12 | 221 | 35.4 | 88.5 | 12.50 | 2.24 | 0.00 | 72 | 1004.8 |
| 20260906000415 | 12 | 207 | 37.0 | 88.5 | 12.50 | 2.24 | 0.00 | 71 | 1004.8 |
| 20260906000015 | 12 | 222 | 38.6 | 88.5 | 12.50 | 2.26 | 0.00 | 71 | 1004.8 |
| 20260905235615 | 12 | 215 | 29.0 | 88.5 | 12.50 | 2.26 | 0.00 | 70 | 1004.8 |
| 20260905235215 | 12 | 218 | 24.1 | 88.5 | 12.50 | 2.29 | 0.00 | 70 | 1004.7 |
| 20260905234815 | 12 | 214 | 25.7 | 88.5 | 12.50 | 2.29 | 0.00 | 70 | 1004.7 |
| 20260905234415 | 12 | 234 | 41.8 | 88.5 | 12.50 | 2.31 | 0.00 | 69 | 1004.7 |
| 20260905234015 | 12 | 263 | 45.1 | 88.5 | 12.50 | 2.31 | 0.00 | 69 | 1004.7 |
| 20260905233615 | 12 | 232 | 30.6 | 88.5 | 12.50 | 2.31 | 0.00 | 69 | 1004.7 |
| 20260905233215 | 12 | 220 | 30.6 | 88.5 | 12.50 | 2.31 | 0.00 | 69 | 1004.7 |
| 20260905232815 | 12 | 238 | 30.6 | 88.5 | 12.50 | 2.34 | 0.00 | 69 | 1004.7 |
| 20260905232415 | 12 | 234 | 32.2 | 88.5 | 12.50 | 2.36 | 0.00 | 68 | 1004.7 |
| 20260905232015 | 12 | 252 | 29.0 | 88.5 | 12.50 | 2.36 | 0.00 | 68 | 1004.7 |
| 20260905231615 | 12 | 237 | 35.4 | 88.5 | 12.50 | 2.36 | 0.00 | 67 | 1004.7 |
| 20260905231215 | 12 | 220 | 27.4 | 88.5 | 12.50 | 2.34 | 0.00 | 68 | 1004.6 |
| 20260905230815 | 12 | 217 | 27.4 | 88.5 | 12.50 | 2.36 | 0.00 | 68 | 1004.7 |
| 20260905230415 | 12 | 211 | 27.4 | 88.5 | 12.50 | 2.36 | 0.00 | 68 | 1004.7 |
| 20260905230015 | 12 | 239 | 16.1 | 88.5 | 12.50 | 2.36 | 0.00 | 68 | 1004.7 |
| 20260905225615 | 12 | 237 | 22.5 | 88.5 | 12.50 | 2.39 | 0.00 | 67 | 1004.6 |
| 20260905225215 | 13 | 222 | 27.4 | 88.5 | 12.50 | 2.39 | 0.00 | 66 | 1004.6 |
| 20260905224815 | 13 | 268 | 27.4 | 88.5 | 12.50 | 2.41 | 0.00 | 66 | 1004.5 |
| 20260905224015 | 13 | 256 | 30.6 | 88.5 | 12.50 | 2.41 | 0.00 | 66 | 1004.6 |
| 20260905223615 | 13 | 232 | 49.9 | 88.5 | 12.50 | 2.41 | 0.00 | 66 | 1004.7 |
| 20260905223215 | 13 | 221 | 22.5 | 88.5 | 12.50 | 2.39 | 0.00 | 67 | 1004.8 |
| 20260905222815 | 13 | 232 | 49.9 | 88.5 | 12.50 | 2.39 | 0.00 | 67 | 1004.8 |
| 20260905222415 | 13 | 239 | 27.4 | 88.5 | 12.60 | 2.39 | 0.00 | 67 | 1004.8 |
| 20260905222015 | 13 | 235 | 29.0 | 88.5 | 12.60 | 2.41 | 0.00 | 67 | 1004.8 |
| 20260905221615 | 13 | 230 | 24.1 | 88.5 | 12.60 | 2.39 | 0.00 | 67 | 1004.7 |
| 20260905221215 | 13 | 242 | 35.4 | 88.5 | 12.60 | 2.39 | 0.00 | 68 | 1004.8 |
| 20260905220815 | 12 | 203 | 17.7 | 88.5 | 12.60 | 2.39 | 0.00 | 68 | 1004.8 |
| 20260905220415 | 13 | 228 | 11.3 | 88.5 | 12.60 | 2.39 | 0.00 | 68 | 1004.7 |
| 20260905220015 | 12 | 253 | 33.8 | 88.5 | 12.60 | 2.36 | 0.00 | 69 | 1004.7 |
| 20260905215615 | 12 | 218 | 37.0 | 88.5 | 12.60 | 2.36 | 0.00 | 72 | 1004.7 |
| 20260905215215 | 12 | 211 | 16.1 | 88.5 | 12.60 | 2.31 | 0.00 | 74 | 1004.7 |
| 20260905214815 | 12 | 218 | 24.1 | 88.5 | 12.60 | 2.31 | 0.00 | 74 | 1004.7 |
| 20260905214415 | 12 | 214 | 11.3 | 88.5 | 12.60 | 2.31 | 0.00 | 74 | 1004.6 |
| 20260905214015 | 12 | 189 | 11.3 | 88.5 | 12.60 | 2.31 | 0.00 | 73 | 1004.6 |
| 20260905213615 | 12 | 193 | 12.9 | 88.5 | 12.60 | 2.31 | 0.00 | 73 | 1004.7 |
| 20260905213215 | 12 | 192 | 14.5 | 88.5 | 12.60 | 2.31 | 0.00 | 73 | 1004.6 |
| 20260905212815 | 12 | 194 | 11.3 | 88.5 | 12.60 | 2.31 | 0.00 | 73 | 1004.6 |
| 20260905212415 | 12 | 189 | 9.7 | 88.5 | 12.60 | 2.31 | 0.00 | 73 | 1004.6 |
| 20260905212015 | 12 | 194 | 11.3 | 88.5 | 12.60 | 2.31 | 0.00 | 72 | 1004.6 |
| 20260905211615 | 12 | 180 | 9.7 | 88.5 | 12.60 | 2.31 | 0.00 | 72 | 1004.7 |
| 20260905211215 | 12 | 196 | 14.5 | 88.5 | 12.60 | 2.31 | 0.00 | 72 | 1004.8 |
| 20260905210815 | 12 | 204 | 11.3 | 88.5 | 12.60 | 2.31 | 0.00 | 71 | 1004.8 |
| 20260905210415 | 12 | 187 | 12.9 | 88.5 | 12.60 | 2.34 | 0.00 | 71 | 1004.7 |
| 20260905210025 | 12 | 193 | 11.3 | 88.5 | 12.60 | 2.36 | 0.00 | 71 | 1004.7 |
| 20260905205615 | 12 | 187 | 8.0 | 88.5 | 12.60 | 2.36 | 0.00 | 70 | 1004.7 |
| 20260905205215 | 12 | 210 | 11.3 | 88.5 | 12.60 | 2.36 | 0.00 | 70 | 1004.6 |
| 20260905204815 | 12 | 211 | 9.7 | 88.5 | 12.60 | 2.36 | 0.00 | 69 | 1004.7 |
| 20260905204415 | 12 | 208 | 12.9 | 88.5 | 12.60 | 2.34 | 0.00 | 69 | 1004.8 |
| 20260905204015 | 12 | 217 | 8.0 | 88.5 | 12.60 | 2.31 | 0.00 | 68 | 1004.8 |
| 20260905203615 | 12 | 227 | 8.0 | 88.5 | 12.60 | 2.34 | 0.00 | 69 | 1004.8 |
| 20260905203215 | 12 | 214 | 6.4 | 88.5 | 12.60 | 2.36 | 0.00 | 68 | 1004.8 |
| 20260905202815 | 12 | 221 | 9.7 | 88.5 | 12.60 | 2.36 | 0.00 | 67 | 1004.8 |
| 20260905202415 | 12 | 241 | 12.9 | 88.5 | 12.60 | 2.39 | 0.00 | 66 | 1004.9 |
| 20260905202015 | 13 | 221 | 12.9 | 88.5 | 12.60 | 2.39 | 0.00 | 65 | 1004.9 |
| 20260905201615 | 13 | 245 | 12.9 | 88.5 | 12.60 | 2.39 | 0.00 | 66 | 1004.9 |
| 20260905201215 | 12 | 263 | 9.7 | 88.5 | 12.60 | 2.36 | 0.00 | 66 | 1005.0 |
| 20260905200815 | 13 | 284 | 11.3 | 88.5 | 12.60 | 2.36 | 0.00 | 68 | 1005.0 |
| 20260905200415 | 13 | 256 | 17.7 | 88.5 | 12.60 | 2.39 | 0.00 | 67 | 1004.9 |
| 20260905200015 | 13 | 286 | 12.9 | 88.5 | 12.60 | 2.41 | 0.00 | 65 | 1005.1 |
| 20260905195615 | 13 | 259 | 8.0 | 88.5 | 12.60 | 2.41 | 0.00 | 68 | 1005.1 |
| 20260905195215 | 13 | 266 | 12.9 | 88.5 | 12.60 | 2.39 | 0.00 | 65 | 1005.1 |
| 20260905194815 | 13 | 252 | 11.3 | 88.5 | 12.60 | 2.44 | 0.00 | 66 | 1004.9 |
| 20260905194415 | 13 | 245 | 12.9 | 88.5 | 12.60 | 2.44 | 0.00 | 66 | 1005.0 |
| 20260905194015 | 13 | 266 | 16.1 | 88.5 | 12.60 | 2.44 | 0.00 | 65 | 1005.0 |
| 20260905193616 | 13 | 256 | 14.5 | 88.5 | 12.60 | 2.44 | 0.00 | 65 | 1004.9 |
| 20260905193215 | 13 | 258 | 14.5 | 88.5 | 12.60 | 2.41 | 0.00 | 65 | 1005.1 |
| 20260905192814 | 13 | 270 | 8.0 | 88.5 | 12.60 | 2.41 | 0.00 | 66 | 1005.1 |
| 20260905192415 | 13 | 251 | 12.9 | 88.5 | 12.60 | 2.41 | 0.00 | 64 | 1005.0 |
| 20260905192015 | 13 | 245 | 11.3 | 88.5 | 12.60 | 2.39 | 0.00 | 65 | 1004.8 |
| 20260905191615 | 13 | 230 | 11.3 | 88.5 | 12.60 | 2.41 | 0.00 | 64 | 1004.8 |
| 20260905191214 | 13 | 237 | 12.9 | 88.5 | 12.60 | 2.39 | 0.00 | 65 | 1004.8 |
| 20260905190814 | 13 | 251 | 9.7 | 88.5 | 12.60 | 2.39 | 0.00 | 64 | 1004.8 |
| 20260905190415 | 13 | 253 | 8.0 | 88.5 | 12.60 | 2.36 | 0.00 | 66 | 1004.8 |
| 20260905190015 | 12 | 239 | 9.7 | 88.5 | 12.60 | 2.31 | 0.00 | 66 | 1004.8 |
| 20260905185615 | 13 | 283 | 9.7 | 88.5 | 12.60 | 2.31 | 0.00 | 66 | 1004.8 |
| 20260905185215 | 13 | 245 | 4.8 | 88.5 | 12.60 | 2.34 | 0.00 | 65 | 1004.8 |
| 20260905184814 | 13 | 249 | 6.4 | 88.5 | 12.60 | 2.39 | 0.00 | 64 | 1004.8 |
| 20260905184415 | 13 | 218 | 3.2 | 88.5 | 12.60 | 2.41 | 0.00 | 63 | 1004.7 |
| 20260905184015 | 13 | 231 | 4.8 | 88.5 | 12.60 | 2.41 | 0.00 | 63 | 1004.7 |
| 20260905183615 | 13 | 256 | 9.7 | 88.5 | 12.60 | 2.46 | 0.00 | 61 | 1004.8 |
| 20260905183214 | 15 | 258 | 12.9 | 88.5 | 12.60 | 2.57 | 0.00 | 58 | 1005.0 |
| 20260905182815 | 15 | 262 | 14.5 | 88.5 | 12.60 | 2.54 | 0.00 | 59 | 1005.0 |
| 20260905182415 | 15 | 252 | 17.7 | 88.5 | 12.60 | 2.54 | 0.00 | 61 | 1004.9 |
| 20260905182015 | 15 | 262 | 16.1 | 88.5 | 12.60 | 2.54 | 0.00 | 62 | 1004.8 |
| 20260905181614 | 15 | 289 | 12.9 | 88.5 | 12.60 | 2.54 | 0.00 | 58 | 1004.7 |
| 20260905181214 | 15 | 231 | 14.5 | 88.5 | 12.60 | 2.54 | 0.00 | 59 | 1004.5 |
| 20260905180814 | 15 | 231 | 12.9 | 88.5 | 12.60 | 2.49 | 0.00 | 60 | 1004.4 |
| 20260905180417 | 15 | 234 | 12.9 | 88.5 | 12.60 | 2.49 | 0.00 | 59 | 1004.3 |
| 20260905180014 | 15 | 214 | 16.1 | 88.5 | 12.60 | 2.51 | 0.00 | 60 | 1004.3 |
| 20260905175614 | 15 | 211 | 12.9 | 88.5 | 12.60 | 2.51 | 0.00 | 59 | 1004.2 |
| 20260905175214 | 15 | 222 | 9.7 | 88.5 | 12.60 | 2.54 | 0.00 | 58 | 1004.1 |
| 20260905174814 | 16 | 221 | 11.3 | 88.5 | 12.60 | 2.57 | 0.00 | 56 | 1004.1 |
| 20260905174414 | 16 | 197 | 9.7 | 88.5 | 12.60 | 2.59 | 0.00 | 55 | 1004.1 |
| 20260905174015 | 16 | 230 | 17.7 | 88.5 | 12.60 | 2.59 | 0.00 | 56 | 1004.1 |
| 20260905173614 | 16 | 213 | 14.5 | 88.5 | 12.60 | 2.59 | 0.00 | 55 | 1004.1 |
| 20260905173214 | 16 | 224 | 11.3 | 88.5 | 12.60 | 2.59 | 0.00 | 55 | 1004.1 |
| 20260905172814 | 16 | 235 | 14.5 | 88.5 | 12.60 | 2.59 | 0.00 | 54 | 1004.1 |
| 20260905172414 | 16 | 228 | 12.9 | 88.5 | 12.60 | 2.59 | 0.00 | 53 | 1004.0 |
| 20260905172014 | 16 | 241 | 14.5 | 88.5 | 12.60 | 2.59 | 0.00 | 53 | 1004.0 |
| 20260905171614 | 16 | 225 | 14.5 | 88.5 | 12.60 | 2.64 | 0.00 | 53 | 1004.0 |
| 20260905171214 | 16 | 230 | 20.9 | 88.5 | 12.60 | 2.67 | 0.00 | 53 | 1003.9 |
| 20260905170814 | 17 | 217 | 12.9 | 88.5 | 12.60 | 2.69 | 0.00 | 52 | 1003.9 |
| 20260905170414 | 17 | 230 | 16.1 | 88.5 | 12.60 | 2.69 | 0.00 | 51 | 1003.9 |
| 20260905170014 | 17 | 228 | 19.3 | 88.5 | 12.70 | 2.72 | 0.00 | 52 | 1003.9 |
| 20260905165614 | 17 | 225 | 24.1 | 88.5 | 12.70 | 2.72 | 0.00 | 53 | 1003.8 |
| 20260905165214 | 17 | 206 | 17.7 | 88.5 | 12.70 | 2.67 | 0.00 | 52 | 1003.8 |
| 20260905164814 | 17 | 211 | 25.7 | 88.5 | 12.80 | 2.74 | 0.00 | 51 | 1003.8 |
| 20260905164414 | 17 | 218 | 24.1 | 88.5 | 12.90 | 2.77 | 0.00 | 48 | 1003.8 |
| 20260905164014 | 17 | 246 | 29.0 | 88.5 | 13.00 | 2.77 | 0.00 | 48 | 1003.8 |
| 20260905163614 | 17 | 231 | 27.4 | 88.5 | 13.11 | 2.79 | 0.00 | 48 | 1003.8 |
| 20260905163214 | 18 | 242 | 30.6 | 88.5 | 13.31 | 2.79 | 0.00 | 50 | 1003.7 |
| 20260905162814 | 17 | 221 | 33.8 | 88.5 | 13.31 | 2.82 | 0.00 | 47 | 1003.6 |
| 20260905162414 | 18 | 208 | 20.9 | 88.5 | 13.49 | 2.87 | 0.00 | 48 | 1003.6 |
| 20260905162014 | 20 | 239 | 24.1 | 88.5 | 13.69 | 2.87 | 0.00 | 48 | 1003.7 |
| 20260905161614 | 20 | 224 | 25.7 | 88.5 | 13.69 | 2.92 | 0.00 | 50 | 1003.6 |
| 20260905161214 | 20 | 244 | 22.5 | 88.5 | 13.69 | 2.90 | 0.00 | 47 | 1003.7 |
| 20260905160814 | 18 | 220 | 30.6 | 88.5 | 13.41 | 2.84 | 0.00 | 46 | 1003.7 |
| 20260905160414 | 17 | 228 | 32.2 | 88.5 | 13.59 | 2.84 | 0.00 | 47 | 1003.6 |
| 20260905160014 | 18 | 228 | 30.6 | 88.5 | 13.69 | 2.87 | 0.00 | 47 | 1003.5 |
| 20260905155614 | 18 | 235 | 25.7 | 88.5 | 13.69 | 2.90 | 0.00 | 46 | 1003.5 |
| 20260905155214 | 18 | 245 | 30.6 | 88.5 | 13.69 | 2.92 | 0.00 | 46 | 1003.5 |
| 20260905154814 | 18 | 249 | 29.0 | 88.5 | 13.69 | 2.87 | 0.00 | 46 | 1003.4 |
| 20260905154414 | 18 | 249 | 33.8 | 88.5 | 13.69 | 2.90 | 0.00 | 45 | 1003.4 |
| 20260905154014 | 18 | 246 | 37.0 | 88.5 | 13.69 | 2.90 | 0.00 | 47 | 1003.4 |
| 20260905153614 | 18 | 213 | 24.1 | 88.5 | 13.69 | 2.92 | 0.00 | 45 | 1003.3 |
| 20260905153214 | 18 | 222 | 20.9 | 88.5 | 13.69 | 2.95 | 0.00 | 44 | 1003.2 |
| 20260905152814 | 20 | 214 | 35.4 | 88.5 | 13.69 | 2.95 | 0.00 | 46 | 1003.2 |
| 20260905152414 | 21 | 237 | 29.0 | 88.5 | 13.69 | 3.00 | 0.00 | 46 | 1003.2 |
| 20260905152014 | 18 | 242 | 20.9 | 88.5 | 13.69 | 2.92 | 0.00 | 45 | 1003.2 |
| 20260905151614 | 18 | 206 | 30.6 | 88.5 | 13.69 | 2.92 | 0.00 | 44 | 1003.1 |
| 20260905151214 | 18 | 228 | 24.1 | 88.5 | 13.69 | 2.95 | 0.00 | 44 | 1003.1 |
| 20260905150814 | 20 | 255 | 40.2 | 88.5 | 13.69 | 2.97 | 0.00 | 44 | 1003.0 |
| 20260905150414 | 21 | 263 | 37.0 | 88.5 | 13.69 | 3.05 | 0.00 | 43 | 1003.0 |
| 20260905150014 | 22 | 244 | 46.7 | 88.5 | 13.69 | 3.10 | 0.00 | 44 | 1002.9 |
| 20260905145614 | 22 | 239 | 33.8 | 88.5 | 13.69 | 3.10 | 0.00 | 45 | 1002.9 |
| 20260905145214 | 22 | 245 | 33.8 | 88.5 | 13.69 | 3.10 | 0.00 | 45 | 1002.9 |
| 20260905144814 | 22 | 232 | 17.7 | 88.5 | 13.69 | 3.07 | 0.00 | 47 | 1002.9 |
| 20260905144414 | 21 | 248 | 35.4 | 88.5 | 13.69 | 3.07 | 0.00 | 45 | 1002.9 |
| 20260905144014 | 22 | 244 | 51.5 | 88.5 | 13.69 | 3.17 | 0.00 | 44 | 1002.9 |
| 20260905143614 | 22 | 253 | 38.6 | 88.5 | 13.69 | 3.15 | 0.00 | 44 | 1002.8 |
| 20260905143214 | 22 | 249 | 32.2 | 88.5 | 13.69 | 3.05 | 0.00 | 44 | 1002.8 |
| 20260905142814 | 22 | 225 | 41.8 | 88.5 | 13.69 | 3.12 | 0.00 | 44 | 1002.7 |
| 20260905142414 | 22 | 194 | 35.4 | 88.5 | 13.69 | 3.10 | 0.00 | 44 | 1002.7 |
| 20260905142014 | 21 | 214 | 40.2 | 88.5 | 13.69 | 3.07 | 0.00 | 45 | 1002.7 |
| 20260905141614 | 22 | 253 | 59.5 | 88.5 | 13.69 | 3.10 | 0.00 | 44 | 1002.7 |
| 20260905141214 | 22 | 222 | 27.4 | 88.5 | 13.69 | 3.15 | 0.00 | 46 | 1002.6 |
| 20260905140816 | 22 | 228 | 29.0 | 88.5 | 13.69 | 3.15 | 0.00 | 47 | 1002.7 |
| 20260905140414 | 23 | 244 | 35.4 | 88.5 | 13.69 | 3.17 | 0.00 | 47 | 1002.7 |
| 20260905140016 | 21 | 244 | 41.8 | 88.5 | 13.69 | 3.07 | 0.00 | 45 | 1002.7 |
| 20260905135614 | 21 | 248 | 25.7 | 88.5 | 13.69 | 3.07 | 0.00 | 45 | 1002.7 |
| 20260905135214 | 20 | 224 | 32.2 | 88.5 | 13.69 | 3.02 | 0.00 | 44 | 1002.7 |
| 20260905134814 | 20 | 235 | 24.1 | 88.5 | 13.69 | 3.00 | 0.00 | 44 | 1002.6 |
| 20260905134414 | 20 | 241 | 38.6 | 88.5 | 13.69 | 3.00 | 0.00 | 43 | 1002.6 |
| 20260905134014 | 20 | 228 | 24.1 | 88.5 | 13.69 | 3.00 | 0.00 | 45 | 1002.6 |
| 20260905133614 | 22 | 242 | 17.7 | 88.5 | 13.69 | 3.12 | 0.00 | 49 | 1002.6 |
| 20260905133214 | 22 | 215 | 25.7 | 88.5 | 13.69 | 3.15 | 0.00 | 46 | 1002.6 |
| 20260905132814 | 23 | 230 | 20.9 | 88.5 | 13.69 | 3.20 | 0.00 | 47 | 1002.6 |
| 20260905132414 | 22 | 235 | 38.6 | 88.5 | 13.69 | 3.15 | 0.00 | 44 | 1002.6 |
| 20260905132014 | 23 | 245 | 25.7 | 88.5 | 13.69 | 3.20 | 0.00 | 46 | 1002.6 |
| 20260905131614 | 23 | 256 | 25.7 | 88.5 | 13.69 | 3.17 | 0.00 | 47 | 1002.6 |
| 20260905131214 | 20 | 207 | 19.3 | 88.5 | 13.69 | 3.05 | 0.00 | 45 | 1002.6 |
| 20260905130814 | 20 | 230 | 29.0 | 88.5 | 13.69 | 3.02 | 0.00 | 46 | 1002.6 |
| 20260905130414 | 20 | 224 | 41.8 | 88.5 | 13.69 | 3.02 | 0.00 | 45 | 1002.6 |
| 20260905130014 | 22 | 211 | 33.8 | 88.5 | 13.69 | 3.15 | 0.00 | 57 | 1002.6 |
| 20260905125614 | 22 | 182 | 40.2 | 88.5 | 13.69 | 3.17 | 0.00 | 51 | 1002.6 |
| 20260905125214 | 21 | 224 | 25.7 | 88.5 | 13.69 | 3.07 | 0.00 | 49 | 1002.5 |
| 20260905124814 | 23 | 214 | 30.6 | 88.5 | 13.69 | 3.23 | 0.00 | 48 | 1002.5 |
| 20260905124414 | 20 | 225 | 43.5 | 88.5 | 13.69 | 3.02 | 0.00 | 46 | 1002.5 |
| 20260905124014 | 21 | 231 | 37.0 | 88.5 | 13.69 | 3.07 | 0.00 | 47 | 1002.5 |
| 20260905123614 | 22 | 199 | 49.9 | 88.5 | 13.69 | 3.15 | 0.00 | 63 | 1002.4 |
| 20260905123214 | 23 | 230 | 30.6 | 88.5 | 13.69 | 3.15 | 0.00 | 53 | 1002.6 |
| 20260905122814 | 23 | 221 | 19.3 | 88.5 | 13.69 | 3.12 | 0.00 | 51 | 1002.6 |
| 20260905122414 | 20 | 262 | 32.2 | 88.5 | 13.69 | 3.00 | 0.00 | 50 | 1002.7 |
| 20260905122014 | 20 | 217 | 27.4 | 88.5 | 13.69 | 3.00 | 0.00 | 51 | 1002.7 |
| 20260905121614 | 20 | 234 | 33.8 | 88.5 | 13.69 | 2.97 | 0.00 | 47 | 1002.7 |
| 20260905121214 | 20 | 221 | 27.4 | 88.5 | 13.69 | 2.97 | 0.00 | 49 | 1002.7 |
| 20260905120814 | 20 | 231 | 29.0 | 88.5 | 13.69 | 2.97 | 0.00 | 48 | 1002.7 |
| 20260905120414 | 20 | 227 | 29.0 | 88.5 | 13.69 | 3.05 | 0.00 | 48 | 1002.7 |
| 20260905120014 | 25 | 210 | 43.5 | 88.5 | 13.69 | 3.23 | 0.00 | 55 | 1002.6 |
| 20260905115614 | 21 | 217 | 49.9 | 88.5 | 13.69 | 3.02 | 0.00 | 50 | 1002.6 |
| 20260905115214 | 21 | 214 | 37.0 | 88.5 | 13.69 | 3.05 | 0.00 | 52 | 1002.6 |
| 20260905114814 | 22 | 217 | 25.7 | 88.5 | 13.69 | 3.05 | 0.00 | 53 | 1002.6 |
| 20260905114414 | 20 | 227 | 30.6 | 88.5 | 13.69 | 2.95 | 0.00 | 50 | 1002.7 |
| 20260905114014 | 20 | 230 | 19.3 | 88.5 | 13.69 | 3.02 | 0.00 | 52 | 1002.8 |
| 20260905113614 | 23 | 207 | 30.6 | 88.5 | 13.69 | 3.17 | 0.00 | 57 | 1002.7 |
| 20260905113214 | 20 | 246 | 33.8 | 88.5 | 13.69 | 2.97 | 0.00 | 52 | 1002.7 |
| 20260905112814 | 20 | 224 | 38.6 | 88.5 | 13.69 | 2.97 | 0.00 | 54 | 1002.7 |
| 20260905112414 | 18 | 231 | 41.8 | 88.5 | 13.69 | 2.95 | 0.00 | 55 | 1002.7 |
| 20260905112014 | 20 | 199 | 40.2 | 88.5 | 13.69 | 2.97 | 0.00 | 56 | 1002.7 |
| 20260905111614 | 21 | 214 | 46.7 | 88.5 | 13.69 | 3.02 | 0.00 | 54 | 1002.6 |
| 20260905111214 | 22 | 227 | 29.0 | 88.5 | 13.69 | 3.10 | 0.00 | 57 | 1002.7 |
| 20260905110814 | 21 | 218 | 35.4 | 88.5 | 13.69 | 3.07 | 0.00 | 57 | 1002.7 |
| 20260905110414 | 20 | 214 | 33.8 | 88.5 | 13.69 | 2.97 | 0.00 | 54 | 1002.7 |
| 20260905110014 | 18 | 204 | 20.9 | 88.5 | 13.69 | 2.90 | 0.00 | 57 | 1002.7 |
| 20260905105614 | 18 | 210 | 33.8 | 88.5 | 13.69 | 2.87 | 0.00 | 61 | 1002.7 |
| 20260905105214 | 20 | 244 | 17.7 | 88.5 | 13.69 | 2.95 | 0.00 | 56 | 1002.7 |
| 20260905104814 | 22 | 201 | 30.6 | 88.5 | 13.69 | 3.00 | 0.00 | 60 | 1002.7 |
| 20260905104414 | 22 | 225 | 38.6 | 88.5 | 13.69 | 3.05 | 0.00 | 63 | 1002.7 |
| 20260905104014 | 22 | 213 | 40.2 | 88.5 | 13.69 | 3.07 | 0.00 | 57 | 1002.7 |
| 20260905103614 | 22 | 235 | 49.9 | 88.5 | 13.69 | 3.02 | 0.00 | 58 | 1002.6 |
| 20260905103214 | 20 | 225 | 30.6 | 88.5 | 13.69 | 2.95 | 0.00 | 59 | 1002.6 |
| 20260905102816 | 22 | 232 | 33.8 | 88.5 | 13.69 | 3.05 | 0.00 | 60 | 1002.6 |
| 20260905102416 | 20 | 221 | 24.1 | 88.5 | 13.69 | 2.95 | 0.00 | 59 | 1002.6 |
| 20260905102016 | 23 | 193 | 20.9 | 88.5 | 13.69 | 3.05 | 0.00 | 63 | 1002.5 |
| 20260905101616 | 22 | 249 | 32.2 | 88.5 | 13.69 | 2.92 | 0.00 | 60 | 1002.6 |
| 20260905101216 | 18 | 230 | 27.4 | 88.5 | 13.69 | 2.84 | 0.00 | 60 | 1002.6 |
| 20260905100814 | 18 | 231 | 32.2 | 88.5 | 13.69 | 2.82 | 0.00 | 59 | 1002.5 |
| 20260905100016 | 17 | 196 | 22.5 | 88.5 | 13.69 | 2.82 | 0.00 | 59 | 1002.6 |
| 20260905095616 | 17 | 221 | 38.6 | 88.5 | 13.69 | 2.82 | 0.00 | 57 | 1002.5 |
| 20260905095216 | 17 | 239 | 45.1 | 88.5 | 13.69 | 2.87 | 0.00 | 56 | 1002.4 |
| 20260905094816 | 18 | 234 | 48.3 | 88.5 | 13.69 | 2.90 | 0.00 | 57 | 1002.4 |
| 20260905094416 | 18 | 224 | 33.8 | 88.5 | 13.69 | 2.92 | 0.00 | 59 | 1002.4 |
| 20260905094014 | 20 | 220 | 25.7 | 88.5 | 13.69 | 2.97 | 0.00 | 59 | 1002.4 |
| 20260905093614 | 22 | 237 | 37.0 | 88.5 | 13.69 | 3.02 | 0.00 | 58 | 1002.3 |
| 20260905093214 | 22 | 235 | 24.1 | 88.5 | 13.69 | 3.02 | 0.00 | 58 | 1002.3 |
| 20260905092814 | 21 | 263 | 27.4 | 88.5 | 13.69 | 2.92 | 0.00 | 55 | 1002.4 |
| 20260905092414 | 18 | 224 | 61.2 | 88.5 | 13.69 | 2.87 | 0.00 | 54 | 1002.3 |
| 20260905092014 | 20 | 234 | 53.1 | 88.5 | 13.69 | 2.92 | 0.00 | 54 | 1002.2 |
| 20260905091614 | 21 | 245 | 46.7 | 88.5 | 13.69 | 3.00 | 0.00 | 57 | 1002.2 |
| 20260905091214 | 21 | 210 | 33.8 | 88.5 | 13.79 | 2.95 | 0.00 | 59 | 1002.2 |
| 20260905090814 | 20 | 225 | 64.4 | 88.5 | 13.79 | 2.92 | 0.00 | 58 | 1002.2 |
| 20260905090414 | 21 | 253 | 49.9 | 88.5 | 13.79 | 2.97 | 0.00 | 57 | 1002.2 |
| 20260905090014 | 20 | 228 | 37.0 | 88.5 | 13.79 | 2.97 | 0.00 | 58 | 1002.2 |
| 20260905085614 | 22 | 224 | 25.7 | 88.5 | 13.79 | 3.05 | 0.00 | 61 | 1002.0 |
| 20260905085214 | 22 | 194 | 33.8 | 88.5 | 13.79 | 2.95 | 0.00 | 60 | 1002.1 |
| 20260905084814 | 21 | 249 | 41.8 | 88.5 | 13.79 | 2.92 | 0.00 | 60 | 1002.0 |
| 20260905084414 | 21 | 245 | 48.3 | 88.5 | 13.79 | 2.92 | 0.00 | 65 | 1001.9 |
| 20260905084014 | 22 | 252 | 40.2 | 88.5 | 13.79 | 2.97 | 0.00 | 63 | 1002.1 |
| 20260905083616 | 18 | 228 | 29.0 | 88.5 | 13.79 | 2.82 | 0.00 | 62 | 1002.0 |
| 20260905083214 | 20 | 260 | 49.9 | 88.5 | 13.79 | 2.82 | 0.00 | 62 | 1002.0 |
| 20260905082814 | 18 | 232 | 45.1 | 88.5 | 13.79 | 2.79 | 0.00 | 63 | 1001.9 |
| 20260905082414 | 18 | 224 | 38.6 | 88.5 | 13.79 | 2.79 | 0.00 | 64 | 1001.8 |
| 20260905082014 | 20 | 225 | 32.2 | 88.5 | 13.79 | 2.82 | 0.00 | 66 | 1001.9 |
| 20260905081614 | 17 | 221 | 20.9 | 88.5 | 13.79 | 2.77 | 0.00 | 65 | 1001.9 |
| 20260905081214 | 17 | 222 | 48.3 | 88.5 | 13.79 | 2.77 | 0.00 | 66 | 1001.9 |
| 20260905080814 | 17 | 214 | 20.9 | 88.5 | 13.79 | 2.77 | 0.00 | 67 | 1001.7 |
| 20260905080414 | 18 | 222 | 38.6 | 88.5 | 13.79 | 2.84 | 0.00 | 67 | 1002.0 |
| 20260905080014 | 18 | 235 | 32.2 | 88.5 | 13.79 | 2.82 | 0.00 | 68 | 1002.0 |
| 20260905075614 | 17 | 224 | 25.7 | 88.5 | 13.79 | 2.74 | 0.00 | 67 | 1001.9 |
| 20260905075214 | 17 | 228 | 30.6 | 88.5 | 13.79 | 2.74 | 0.00 | 66 | 1001.8 |
| 20260905074814 | 17 | 225 | 27.4 | 88.5 | 13.79 | 2.74 | 0.00 | 66 | 1001.8 |
| 20260905074414 | 17 | 241 | 32.2 | 88.5 | 13.79 | 2.74 | 0.00 | 68 | 1001.7 |
| 20260905074014 | 17 | 193 | 29.0 | 88.5 | 13.79 | 2.77 | 0.00 | 67 | 1001.5 |
| 20260905073614 | 17 | 221 | 64.4 | 88.5 | 13.79 | 2.74 | 0.00 | 69 | 1001.4 |
| 20260905073214 | 17 | 231 | 45.1 | 88.5 | 13.79 | 2.72 | 0.00 | 69 | 1001.5 |
| 20260905072814 | 16 | 207 | 37.0 | 88.5 | 13.79 | 2.72 | 0.00 | 69 | 1001.5 |
| 20260905072414 | 17 | 210 | 30.6 | 88.5 | 13.79 | 2.79 | 0.00 | 70 | 1001.6 |
| 20260905072014 | 17 | 230 | 33.8 | 88.5 | 13.79 | 2.82 | 0.00 | 71 | 1001.5 |
| 20260905071614 | 17 | 230 | 30.6 | 88.5 | 13.79 | 2.74 | 0.00 | 71 | 1001.4 |
| 20260905071214 | 17 | 251 | 37.0 | 88.5 | 13.79 | 2.74 | 0.00 | 70 | 1001.4 |
| 20260905070814 | 17 | 220 | 38.6 | 88.5 | 13.79 | 2.77 | 0.00 | 72 | 1001.4 |
| 20260905070414 | 17 | 231 | 27.4 | 88.5 | 13.79 | 2.74 | 0.00 | 72 | 1001.4 |
| 20260905070014 | 17 | 242 | 35.4 | 88.5 | 13.79 | 2.69 | 0.00 | 72 | 1001.3 |
| 20260905065614 | 17 | 249 | 32.2 | 88.5 | 13.41 | 2.69 | 0.00 | 72 | 1001.3 |
| 20260905065214 | 17 | 214 | 32.2 | 88.5 | 13.69 | 2.69 | 0.00 | 73 | 1001.1 |
| 20260905064814 | 17 | 221 | 32.2 | 88.5 | 13.59 | 2.69 | 0.00 | 74 | 1001.1 |
| 20260905064414 | 17 | 231 | 27.4 | 88.5 | 13.49 | 2.69 | 0.00 | 74 | 1000.9 |
| 20260905064014 | 16 | 215 | 57.9 | 88.5 | 13.41 | 2.67 | 0.00 | 75 | 1000.8 |
| 20260905063614 | 16 | 244 | 33.8 | 88.5 | 13.21 | 2.67 | 0.00 | 75 | 1000.7 |
| 20260905063216 | 16 | 210 | 33.8 | 88.5 | 13.31 | 2.67 | 0.00 | 76 | 1000.5 |
| 20260905062814 | 16 | 231 | 24.1 | 88.5 | 13.21 | 2.64 | 0.00 | 76 | 1000.5 |
| 20260905062414 | 16 | 224 | 27.4 | 88.5 | 13.21 | 2.64 | 0.00 | 76 | 1000.6 |
| 20260905062014 | 16 | 213 | 27.4 | 88.5 | 13.11 | 2.64 | 0.00 | 76 | 1000.7 |
| 20260905061614 | 16 | 206 | 35.4 | 88.5 | 13.11 | 2.64 | 0.00 | 77 | 1000.7 |
| 20260905061214 | 16 | 213 | 33.8 | 88.5 | 12.90 | 2.64 | 0.00 | 77 | 1000.7 |
| 20260905060814 | 16 | 201 | 29.0 | 88.5 | 12.70 | 2.62 | 0.00 | 77 | 1000.8 |
| 20260905060414 | 16 | 217 | 20.9 | 88.5 | 12.80 | 2.62 | 0.00 | 77 | 1000.8 |
| 20260905060014 | 16 | 235 | 35.4 | 88.5 | 12.80 | 2.62 | 0.00 | 77 | 1000.7 |
| 20260905055614 | 16 | 211 | 24.1 | 88.5 | 12.90 | 2.62 | 0.00 | 78 | 1000.7 |
| 20260905055214 | 16 | 220 | 40.2 | 88.5 | 12.70 | 2.62 | 0.00 | 77 | 1000.4 |
| 20260905054814 | 16 | 204 | 33.8 | 88.5 | 12.80 | 2.62 | 0.00 | 78 | 1000.5 |
| 20260905054414 | 16 | 222 | 27.4 | 88.5 | 12.70 | 2.62 | 0.00 | 78 | 1000.4 |
| 20260905054014 | 16 | 220 | 22.5 | 88.5 | 12.60 | 2.62 | 0.00 | 78 | 1000.4 |
| 20260905053614 | 16 | 231 | 33.8 | 88.5 | 12.40 | 2.62 | 0.00 | 78 | 1000.3 |
| 20260905053214 | 16 | 234 | 20.9 | 88.5 | 12.40 | 2.59 | 0.00 | 78 | 1000.4 |
| 20260905052814 | 16 | 218 | 33.8 | 88.5 | 12.50 | 2.59 | 0.00 | 78 | 1000.3 |
| 20260905052414 | 15 | 228 | 22.5 | 88.5 | 12.50 | 2.59 | 0.00 | 78 | 1000.2 |
| 20260905052014 | 15 | 204 | 30.6 | 88.5 | 12.40 | 2.57 | 0.00 | 78 | 1000.1 |
| 20260905051614 | 16 | 225 | 43.5 | 88.5 | 12.50 | 2.59 | 0.00 | 78 | 1000.1 |
| 20260905051213 | 16 | 208 | 29.0 | 88.5 | 12.50 | 2.59 | 0.00 | 78 | 1000.1 |
| 20260905050814 | 16 | 215 | 25.7 | 88.5 | 12.50 | 2.62 | 0.00 | 77 | 1000.0 |
| 20260905050413 | 16 | 218 | 35.4 | 88.5 | 12.40 | 2.62 | 0.00 | 78 | 999.8 |
| 20260905050014 | 16 | 201 | 25.7 | 88.5 | 12.50 | 2.62 | 0.00 | 78 | 999.6 |
| 20260905045614 | 16 | 231 | 32.2 | 88.5 | 12.40 | 2.59 | 0.00 | 78 | 999.6 |
| 20260905045214 | 16 | 200 | 19.3 | 88.5 | 12.40 | 2.59 | 0.00 | 78 | 999.8 |
| 20260905044816 | 16 | 221 | 40.2 | 88.5 | 12.40 | 2.59 | 0.00 | 78 | 999.7 |
| 20260905044414 | 15 | 234 | 17.7 | 88.5 | 12.40 | 2.59 | 0.00 | 78 | 999.6 |
| 20260905044014 | 15 | 210 | 20.9 | 88.5 | 12.40 | 2.59 | 0.00 | 78 | 999.5 |
| 20260905043614 | 15 | 200 | 27.4 | 88.5 | 12.40 | 2.59 | 0.00 | 78 | 999.3 |
| 20260905043214 | 16 | 206 | 20.9 | 88.5 | 12.40 | 2.59 | 0.00 | 78 | 999.3 |
| 20260905042813 | 16 | 215 | 33.8 | 88.5 | 12.40 | 2.59 | 0.00 | 78 | 999.4 |
| 20260905042413 | 16 | 218 | 35.4 | 88.5 | 12.40 | 2.59 | 0.00 | 78 | 999.5 |
| 20260905042014 | 15 | 208 | 19.3 | 88.5 | 12.40 | 2.57 | 0.00 | 78 | 999.1 |
| 20260905041614 | 16 | 222 | 30.6 | 88.5 | 12.40 | 2.59 | 0.00 | 78 | 999.2 |
| 20260905041213 | 15 | 197 | 29.0 | 88.5 | 12.40 | 2.57 | 0.00 | 78 | 999.2 |
| 20260905040815 | 15 | 224 | 38.6 | 88.5 | 12.40 | 2.59 | 0.00 | 78 | 999.3 |
| 20260905040414 | 16 | 207 | 37.0 | 88.5 | 12.40 | 2.59 | 0.00 | 78 | 999.5 |
| 20260905040014 | 15 | 225 | 29.0 | 88.5 | 12.40 | 2.57 | 0.00 | 78 | 999.6 |
| 20260905035614 | 16 | 218 | 43.5 | 88.5 | 12.40 | 2.59 | 0.00 | 78 | 999.5 |
| 20260905035213 | 16 | 248 | 41.8 | 88.5 | 12.40 | 2.59 | 0.00 | 78 | 999.4 |
| 20260905034814 | 16 | 234 | 24.1 | 88.5 | 12.40 | 2.59 | 0.00 | 78 | 999.5 |
| 20260905034414 | 16 | 231 | 38.6 | 88.5 | 12.40 | 2.59 | 0.00 | 78 | 999.1 |
| 20260905034013 | 16 | 208 | 40.2 | 88.5 | 12.40 | 2.59 | 0.00 | 79 | 999.0 |
| 20260905033614 | 16 | 206 | 48.3 | 88.5 | 12.40 | 2.59 | 0.00 | 79 | 999.2 |
| 20260905033213 | 16 | 213 | 30.6 | 88.5 | 12.40 | 2.59 | 0.00 | 78 | 999.2 |
| 20260905032813 | 16 | 215 | 48.3 | 88.5 | 12.40 | 2.59 | 0.00 | 79 | 999.0 |
| 20260905032414 | 16 | 207 | 27.4 | 88.5 | 12.40 | 2.57 | 0.00 | 79 | 998.8 |
| 20260905032013 | 16 | 231 | 41.8 | 88.5 | 12.40 | 2.57 | 0.00 | 79 | 998.8 |
| 20260905031613 | 16 | 208 | 35.4 | 88.5 | 12.40 | 2.57 | 0.00 | 79 | 998.8 |
| 20260905031214 | 16 | 215 | 30.6 | 88.5 | 12.40 | 2.57 | 0.00 | 78 | 998.8 |
| 20260905030813 | 16 | 218 | 41.8 | 88.5 | 12.40 | 2.57 | 0.00 | 78 | 998.8 |
| 20260905030413 | 16 | 214 | 37.0 | 88.5 | 12.40 | 2.57 | 0.00 | 79 | 998.6 |
| 20260905030014 | 16 | 218 | 53.1 | 88.5 | 12.40 | 2.57 | 0.00 | 78 | 998.6 |
| 20260905025613 | 16 | 210 | 41.8 | 88.5 | 12.40 | 2.57 | 0.00 | 79 | 998.5 |
| 20260905025214 | 16 | 206 | 49.9 | 88.5 | 12.40 | 2.57 | 0.00 | 80 | 998.3 |
| 20260905024813 | 16 | 215 | 32.2 | 88.5 | 12.40 | 2.57 | 0.00 | 79 | 998.2 |
| 20260905024413 | 16 | 242 | 29.0 | 88.5 | 12.40 | 2.57 | 0.00 | 80 | 998.2 |
| 20260905024013 | 16 | 231 | 25.7 | 88.5 | 12.40 | 2.57 | 0.00 | 80 | 998.2 |
| 20260905023613 | 16 | 214 | 24.1 | 88.5 | 12.40 | 2.59 | 0.00 | 80 | 998.0 |
| 20260905023213 | 16 | 220 | 40.2 | 88.5 | 12.40 | 2.59 | 0.00 | 80 | 998.1 |
| 20260905022813 | 16 | 158 | 22.5 | 88.5 | 12.40 | 2.57 | 0.00 | 81 | 998.0 |
| 20260905022413 | 16 | 208 | 24.1 | 88.5 | 12.40 | 2.57 | 0.00 | 81 | 998.2 |
| 20260905022013 | 16 | 206 | 35.4 | 88.5 | 12.40 | 2.59 | 0.00 | 81 | 998.3 |
| 20260905021615 | 16 | 211 | 38.6 | 88.5 | 12.40 | 2.59 | 0.00 | 81 | 998.1 |
| 20260905021213 | 15 | 230 | 24.1 | 88.5 | 12.50 | 2.59 | 0.00 | 80 | 998.2 |
| 20260905020813 | 15 | 214 | 29.0 | 88.5 | 12.50 | 2.59 | 0.00 | 82 | 998.3 |
| 20260905020415 | 15 | 207 | 24.1 | 88.5 | 12.50 | 2.59 | 0.00 | 81 | 998.3 |
| 20260905020013 | 15 | 208 | 45.1 | 88.5 | 12.50 | 2.59 | 0.00 | 81 | 998.3 |
| 20260905015613 | 15 | 217 | 48.3 | 88.5 | 12.50 | 2.59 | 0.00 | 82 | 998.1 |
| 20260905015213 | 15 | 232 | 35.4 | 88.5 | 12.50 | 2.59 | 0.00 | 82 | 998.1 |
| 20260905014813 | 15 | 225 | 37.0 | 88.5 | 12.50 | 2.59 | 0.00 | 82 | 997.9 |
| 20260905014413 | 15 | 234 | 48.3 | 88.5 | 12.50 | 2.59 | 0.00 | 82 | 998.2 |
| 20260905014013 | 16 | 215 | 30.6 | 88.5 | 12.50 | 2.59 | 0.00 | 82 | 998.0 |
| 20260905013613 | 16 | 221 | 22.5 | 88.5 | 12.50 | 2.59 | 0.00 | 82 | 998.1 |
| 20260905013213 | 16 | 246 | 38.6 | 88.5 | 12.50 | 2.59 | 0.00 | 82 | 998.1 |
| 20260905012813 | 16 | 213 | 25.7 | 88.5 | 12.50 | 2.59 | 0.00 | 81 | 998.2 |
| 20260905012413 | 15 | 231 | 35.4 | 88.5 | 12.50 | 2.59 | 0.00 | 81 | 998.2 |
| 20260905012013 | 16 | 230 | 32.2 | 88.5 | 12.50 | 2.62 | 0.00 | 81 | 998.1 |
| 20260905011613 | 16 | 235 | 29.0 | 88.5 | 12.50 | 2.62 | 0.00 | 80 | 997.9 |
| 20260905011213 | 16 | 231 | 30.6 | 88.5 | 12.50 | 2.62 | 0.00 | 80 | 997.9 |
| 20260905010813 | 16 | 207 | 22.5 | 88.5 | 12.50 | 2.67 | 0.00 | 81 | 997.8 |
| 20260905010413 | 16 | 228 | 35.4 | 88.5 | 12.50 | 2.67 | 0.00 | 81 | 998.0 |